GW6898 Weather Reports


Display with metric or nautical units.
time (UTC)temp
F
wind
direction
speed
MPH
gust
MPH
rain 1hr
in
rain 24hr
in
rain mn
in
humidity
%
barometer
mb
20260506204514 55 205 2.0 4.0 0.05 2.55 2.55 91 1013.6
20260506203020 55 233 2.0 3.0 0.05 2.54 2.54 91 1013.5
20260506201506 56 219 2.0 4.0 0.03 2.52 2.52 90 1013.4
20260506200004 56 19 0.0 4.0 0.01 2.50 2.50 91 1013.1
20260506194507 57 243 0.0 3.0 0.01 2.50 2.50 93 1012.9
20260506193015 57 196 0.0 2.0 0.01 2.49 2.49 93 1012.8
20260506191520 57 205 0.0 2.0 0.01 2.61 2.49 93 1012.3
20260506190008 57 58 0.0 5.0 0.01 2.70 2.49 93 1012.1
20260506184507 57 55 4.0 6.0 0.02 3.12 2.49 92 1011.9
20260506183021 57 334 0.0 2.0 0.03 3.13 2.48 92 1011.9
20260506181517 57 58 2.0 4.0 0.04 3.13 2.48 92 1011.6
20260506180022 58 49 3.0 5.0 0.04 3.13 2.48 92 1011.6
20260506174504 58 199 2.0 5.0 0.07 3.12 2.47 92 1011.6
20260506173008 58 220 0.0 3.0 0.08 3.10 2.45 92 1011.5
20260506171528 58 236 0.0 2.0 0.23 3.09 2.44 93 1011.4
20260506170017 58 66 3.0 4.0 0.41 3.09 2.44 92 1011.2
20260506164523 58 56 2.0 2.0 0.43 3.05 2.40 92 1011.3
20260506163008 58 358 0.0 3.0 0.41 3.03 2.36 92 1011.3
20260506161514 58 12 1.0 2.0 0.29 2.91 2.21 90 1011.2
20260506160014 59 4 0.0 2.0 0.11 2.76 2.03 90 1011.2
20260506154524 59 13 0.0 2.0 0.05 2.70 1.97 89 1010.8
20260506153026 59 290 3.0 5.0 0.05 2.69 1.96 88 1010.9
20260506151528 60 310 1.0 3.0 0.01 2.65 1.92 85 1010.9
20260506150016 60 33 1.0 5.0 0.26 2.65 1.92 85 1011.0
20260506144529 59 337 3.0 5.0 0.26 2.66 1.92 86 1011.1
20260506143030 58 309 4.0 6.0 0.25 2.65 1.91 87 1011.2
20260506141526 57 307 4.0 11.0 0.25 2.66 1.91 86 1011.3
20260506140029 60 310 7.0 17.0 0.00 2.48 1.66 79 1011.3
20260506134516 67 317 7.0 14.0 0.00 2.48 1.66 67 1011.1
20260506133021 68 185 4.0 11.0 0.00 2.48 1.66 67 1010.6
20260506131533 68 196 3.0 16.0 0.00 2.48 1.66 68 1010.4
20260506130024 67 236 5.0 19.0 0.00 2.48 1.66 72 1010.8
20260506124528 67 312 5.0 13.0 0.00 2.63 1.66 70 1010.9
20260506123017 68 264 4.0 7.0 0.00 2.73 1.66 69 1010.9
20260506121520 67 155 4.0 11.0 0.00 2.81 1.66 70 1010.8
20260506120015 66 211 2.0 6.0 0.00 2.84 1.66 71 1011.0
20260506114520 66 203 3.0 8.0 0.00 2.94 1.66 72 1011.2
20260506113024 65 182 5.0 11.0 0.00 2.99 1.66 73 1011.3
20260506111513 64 205 3.0 10.0 0.00 3.01 1.66 76 1011.3
20260506110006 63 160 5.0 12.0 0.00 3.17 1.66 76 1011.6
20260506104508 63 206 5.0 11.0 0.00 3.20 1.66 75 1011.7
20260506103012 63 179 5.0 11.0 0.00 3.21 1.66 76 1011.9
20260506101516 63 210 4.0 9.0 0.00 3.22 1.66 76 1011.8
20260506100016 63 210 4.0 14.0 0.00 3.27 1.66 77 1011.8
20260506094506 63 236 7.0 15.0 0.00 3.27 1.66 76 1011.9
20260506093009 63 213 5.0 12.0 0.00 3.29 1.66 77 1011.8
20260506091515 62 178 2.0 11.0 0.01 3.29 1.66 82 1011.8
20260506090021 61 209 3.0 13.0 0.01 3.29 1.66 83 1011.9
20260506084518 61 223 5.0 11.0 0.01 3.29 1.66 84 1011.6
20260506083004 60 200 3.0 7.0 0.01 3.29 1.66 84 1011.5
20260506081510 60 178 7.0 15.0 0.00 3.28 1.65 83 1011.4
20260506073020 60 133 4.0 10.0 0.00 3.29 1.65 84 1011.3
20260506071520 60 168 2.0 11.0 0.05 3.29 1.65 85 1011.3
20260506061524 59 221 4.0 9.0 0.01 3.35 1.60 86 1011.1
20260506044523 56 206 0.0 6.0 0.28 3.58 1.59 94 1011.6
20260506043016 56 70 0.0 4.0 0.34 3.58 1.58 94 1011.9
20260506041518 56 69 3.0 5.0 0.33 3.56 1.55 94 1012.0
20260506040026 56 136 0.0 3.0 0.27 3.50 1.49 93 1012.2
20260506034517 56 110 1.0 4.0 0.17 3.33 1.31 93 1012.0
20260506033011 56 307 2.0 4.0 0.23 3.26 1.24 93 1011.9
20260506031519 56 332 2.0 6.0 0.25 3.24 1.22 94 1011.9
20260506030035 55 180 1.0 12.0 0.27 3.24 1.22 93 1012.1
20260506024550 56 332 4.0 6.0 0.19 3.17 1.14 93 1011.8
20260506023013 56 279 3.0 5.0 0.06 3.06 1.01 93 1011.4
20260506021516 56 160 0.0 3.0 0.02 3.05 0.97 93 1011.5
20260506020016 56 169 0.0 2.0 0.00 3.04 0.95 93 1011.7
20260506014524 56 53 2.0 4.0 0.00 3.04 0.95 92 1011.9
20260506013037 56 57 0.0 4.0 0.00 3.04 0.95 92 1012.0
20260506011510 56 297 1.0 3.0 0.00 3.04 0.95 92 1012.3
20260506010020 55 50 3.0 9.0 0.00 3.04 0.95 92 1012.4
20260506004520 55 42 3.0 5.0 0.00 3.04 0.95 93 1012.4
20260506003023 55 49 2.0 3.0 0.06 3.04 0.95 93 1012.8
20260506001528 55 246 0.0 2.0 0.40 3.04 0.95 92 1013.0
20260506000025 56 171 1.0 3.0 0.60 3.04 0.95 92 1013.2
20260505234517 56 65 3.0 5.0 0.89 3.04 0.95 92 1013.5
20260505233021 57 66 1.0 3.0 0.89 2.98 0.89 91 1013.7
20260505231506 58 64 1.0 3.0 0.55 2.64 0.55 90 1013.5
20260505230027 58 40 3.0 7.0 0.35 2.44 0.35 91 1013.5
20260505224515 59 332 3.0 6.0 0.06 2.15 0.06 90 1013.4
20260505223016 59 83 4.0 5.0 0.00 2.08 0.00 89 1013.7
20260505221505 59 3 1.0 4.0 0.00 2.08 0.00 90 1013.7
20260505220007 59 32 1.0 4.0 0.00 2.08 0.00 89 1013.9
20260505214511 59 259 2.0 6.0 0.00 2.08 2.08 90 1014.0
20260505213016 58 147 0.0 5.0 0.00 2.08 2.08 89 1014.4
20260505211521 58 41 4.0 7.0 0.00 2.08 2.08 90 1014.5
20260505210006 58 58 3.0 6.0 0.00 2.08 2.08 91 1014.4